Location: *
(60.1759°S, 155.0663°W)
Time: 07:25:11
(UTC+00:00)

ERS-2 - Pass Details

Date: 17 September 2019
Orbit: 496 x 499 km, 98.5° (Epoch: 22 October)

Event Time Altitude Azimuth Distance (km) Brightness Sun altitude
Rises 12:02:53 0° 161° (SSE) 2,646 7.0 -28.5°
Reaches altitude 10° 12:05:01 10° 158° (SSE) 1,752 5.8 -28.3°
Enters shadow 12:07:13 33° 147° (SSE) 891 3.9 -28.2°
